2023-121E (57630 NORAD) Tracking and Keplerian Element Data

This shows tracking and keplerian element data for the satellite.

Feedback or suggestion? Click here.




ElementValue
Catalog57630
Name2023-121E
Epoch Orbit189
Epoch Day239.15353614
Epoch Year2023
RAAN297.5778
Inclination45.0034
Eccentricity0.0007502
Argument of Perigee320.7847
Mean Anonmoly39.2465
Mean Motion14.58605694
Decay Rate1.133E-05
L11 57630U 23121E 23239.15353614 .00001133 00000+0 27427-3 0 9999
L22 57630 45.0034 297.5778 0007502 320.7847 39.2465 14.58605694 1894



Live tracking and technical data element details for 2023-121E (NORAD 57630). 2023-121E can be tracked NOW for your location showing map with azimuth and elevation plus other details from your city location.







IsCatalogInMostPopularTable: catalog: 57630, numindb: 20
Update: records affected: 1



GetName: 57630 2023-121E

Hit Count: updated at: Mon, 04 Dec 2023 04:07:56 GMT